Flag Weather past 2 weeks in Zabrze, Poland

Now
36 °F

Fog.


Feels Like: 36 °F
Forecast: 30 / 37 °F
Wind: 2 mph from North

Location: Katowice Airport

Current Time: Nov 26, 2014 at 4:23:35 AM

Latest Report: Nov 26, 2014 at 4:00 AM


Visibility: 0 mi

Pressure: 30.27 "Hg

Humidity: 100%

Dew point: 36 °F

Location of ZabrzeLocation

Historic Weather in Zabrze — Graph

°F

Zabrze temperature yesterday

Maximum temperature yesterday: 43 °F (at 2:00 PM)
Minimum temperature yesterday: 36 °F (at 10:30 PM)
Average temperature yesterday: 39 °F

Past Weeks' High & Low Weather Summary

 TemperatureHumidityPressure
High66 °F (Nov 11, 1:30 PM)100% (Nov 13, 3:00 AM)30.42 "Hg (Nov 13, 3:00 AM)
Low32 °F (Nov 23, 10:30 PM)56% (Nov 11, 12:00 PM)29.74 "Hg (Nov 16, 11:00 AM)
Average42 °F92%30.07 "Hg
* Reported Nov 11 3:00 AM — Nov 26 3:00 AM, Zabrze, Weather by CustomWeather, © 2014

Note: Actual official high and low records may vary slightly from our data, if they occured in-between our weather recording intervals... More about our weather records

Advertising

Zabrze weather history for previous 24 hours

 ConditionsComfort  
Time TempWeatherWind HumidityBarometerVisibility
3:00 AM
Nov 26
36 °FFog.No wind100%30.27 "Hg0 mi
2:30 AM36 °FFog.2 mph100%30.27 "Hg1 mi
2:00 AM37 °FFog.No wind100%30.27 "Hg1 mi
1:30 AM37 °FFog.2 mph100%30.30 "Hg1 mi
1:00 AM37 °FFog.No wind93%30.30 "Hg1 mi
12:30 AM37 °FFog.2 mph100%30.30 "Hg1 mi
12:00 AM37 °FFog.No wind100%30.30 "Hg1 mi
11:30 PM
Nov 25
36 °FFog.2 mph100%30.30 "Hg1 mi
11:00 PM36 °FFog.3 mph100%30.30 "Hg0 mi
10:30 PM36 °FFog.No wind100%30.30 "Hg0 mi
10:00 PM39 °FLight rain. Fog.3 mph93%30.30 "Hg1 mi
9:30 PM39 °FFog.No wind93%30.30 "Hg1 mi
9:00 PM39 °FLight rain. Fog.No wind93%30.30 "Hg1 mi
8:30 PM37 °FLight rain. Fog.No wind100%30.30 "Hg1 mi
8:00 PM39 °FLight rain. Fog.No wind93%30.30 "Hg1 mi
7:30 PM39 °FLight rain. Fog.No wind93%30.30 "Hg2 mi
7:00 PM39 °FLight rain. Fog.No wind93%30.30 "Hg2 mi
6:30 PM39 °FFog.2 mph93%30.30 "Hg2 mi
6:00 PM37 °FFog.No wind100%30.30 "Hg1 mi
5:30 PM37 °FFog.2 mph100%30.30 "Hg1 mi
5:00 PM37 °FChilly.No wind100%30.30 "Hg1 mi
4:30 PM39 °FFog.No wind93%30.30 "Hg5 mi
4:00 PM41 °FPassing clouds.1 mph87%30.30 "HgN/A
3:30 PM41 °FPartly sunny.2 mph87%30.30 "HgN/A
3:00 PM41 °FPartly sunny.2 mph87%30.30 "HgN/A
2:30 PM43 °FBroken clouds.2 mph81%30.30 "HgN/A
2:00 PM43 °FPartly sunny.3 mph87%30.30 "HgN/A
1:30 PM41 °FBroken clouds.6 mph87%30.30 "HgN/A
1:00 PM41 °FBroken clouds.7 mph87%30.33 "HgN/A
12:30 PM41 °FBroken clouds.6 mph87%30.33 "HgN/A
12:00 PM41 °FBroken clouds.6 mph87%30.33 "HgN/A
11:30 AM41 °FBroken clouds.7 mph87%30.33 "Hg5 mi
11:00 AM41 °FBroken clouds.7 mph87%30.33 "Hg4 mi
10:30 AM41 °FBroken clouds.5 mph93%30.33 "Hg4 mi
10:00 AM41 °FBroken clouds.8 mph87%30.33 "Hg4 mi
9:30 AM39 °FFog.6 mph93%30.33 "Hg1 mi
9:00 AM39 °FFog.8 mph100%30.33 "Hg1 mi
8:30 AM39 °FFog.7 mph100%30.30 "Hg1 mi
8:00 AM39 °FFog.5 mph100%30.30 "Hg1 mi
7:30 AM39 °FFog.8 mph93%30.30 "Hg1 mi
7:00 AM39 °FFog.7 mph93%30.30 "Hg1 mi
6:30 AM39 °FFog.8 mph100%30.30 "Hg2 mi
6:00 AM39 °FDrizzle. Fog.7 mph93%30.30 "Hg1 mi
5:30 AM37 °FDrizzle. Fog.8 mph100%30.30 "Hg1 mi
5:00 AM37 °FDrizzle. Fog.7 mph100%30.30 "Hg1 mi
4:30 AM37 °FDrizzle. Fog.8 mph100%30.30 "Hg1 mi
4:00 AM37 °FDrizzle. Fog.9 mph100%30.27 "Hg1 mi
Weather by CustomWeather, © 2014

See weather overviewHow to use our weather pages